HULIANGWANG DIGUI-05 (62327 NORAD) Tracking and Keplerian Element Data

This shows tracking and keplerian element data for the satellite.

Feedback or suggestion? Click here.




ElementValue
Catalog62327
NameHULIANGWANG DIGUI-05
Epoch Orbit661
Epoch Day34.84986571
Epoch Year2025
RAAN151.7904
Inclination86.5093
Eccentricity0.0012633
Argument of Perigee152.1618
Mean Anonmoly208.0202
Mean Motion13.37558198
Decay Rate1.02E-06
L11 62327U 24240E 25034.84986571 .00000102 00000+0 16487-3 0 9995
L22 62327 86.5093 151.7904 0012633 152.1618 208.0202 13.37558198 6616



Live tracking and technical data element details for HULIANGWANG DIGUI-05 (NORAD 62327). HULIANGWANG DIGUI-05 can be tracked NOW for your location showing map with azimuth and elevation plus other details from your city location.







IsCatalogInMostPopularTable: catalog: 62327, numindb: 10
Update: records affected: 1



GetName: 62327 HULIANGWANG DIGUI-05

Hit Count: updated at: Sat, 24 May 2025 15:51:47 GMT